{"data":{"norad_id":43539,"intl_designator":"2018-057A","name":"BEIDOU-2 IGSO-7 (C16)","alt_names":[],"object_type":"PAYLOAD","status":"ACTIVE","operator":null,"country":"PRC","launch_date":"2018-07-09","launch_site_code":"XICLF","launch_vehicle":null,"mission":null,"orbit_class":"UNKNOWN","rcs_meters":null,"size_class":null,"mass_kg":null,"dimensions":null,"purposes":["comms","nav"],"wikipedia_slug":null,"has_3d_model":false,"image_url":null,"decayed_at":null,"tle_current":{"epoch":"2026-09-19T16:10:16.851360Z","epoch_age_seconds":85762,"freshness":"FRESH","line1":"1 43539U 18057A   26262.67380615 -.00000165  00000+0  00000+0 0  9990","line2":"2 43539  55.2127 162.2531 0107678 236.4201 315.0789  1.00275683 30070","mean_motion":1.00275683,"eccentricity":0.0107678,"inclination_deg":55.2127,"raan_deg":162.2531,"arg_perigee_deg":236.4201,"mean_anomaly_deg":315.0789,"bstar":0,"rev_number":3007,"period_min":1436.0410788725,"perigee_km":35331.492611018,"apogee_km":36239.511880358,"semimajor_km":42163.639245688,"source":"CELESTRAK","updated_at":"2026-09-20T09:00:46.708169Z"}}}